Total_Precipitation_Accumulation
0.53 0.52 0.54 0.53 0.48 0.52 0.65 0.79 0.80 0.86 1.04 0.94 1.00 1.16 1.27 1.65 2.16 2.39 1.74 1.38 1.29 1.14 0.98 1.09 2.07 3.57 2.61 1.76 0.60 0.44 0.83 0.66 1.15 1.64 0.97 1.32 1.21 1.13 0.63 0.32 0.47 0.49 0.58 0.57 0.71 0.62 0.47
0.51 0.49 0.53 0.50 0.48 0.53 0.76 0.80 0.81 0.93 0.81 0.80 0.89 0.87 0.89 1.16 1.45 1.62 1.38 1.31 1.27 1.08 1.08 1.35 2.32 2.87 1.94 1.35 0.54 0.58 0.60 0.71 0.84 1.09 0.89 1.22 1.06 1.04 0.69 0.44 0.49 0.30 0.56 0.73 0.99 0.79 0.86
0.45 0.48 0.49 0.48 0.53 0.66 0.73 0.64 0.56 0.56 0.64 0.71 0.84 0.83 0.75 1.05 1.27 1.34 1.29 1.23 1.13 0.93 1.13 1.51 2.05 2.12 1.75 1.20 0.80 0.84 0.41 0.80 1.16 0.86 0.94 0.97 1.02 1.28 0.85 0.52 0.35 0.38 0.78 1.05 1.10 1.24 1.23
0.48 0.47 0.47 0.48 0.61 0.70 0.60 0.49 0.53 0.54 0.61 0.81 0.89 0.78 0.71 0.89 0.93 0.94 0.90 0.84 0.91 1.10 1.39 1.90 2.37 1.80 2.07 1.19 0.75 0.53 0.29 0.47 0.86 1.13 1.10 1.20 0.84 1.08 0.79 0.53 0.53 0.78 1.08 1.06 0.93 1.30 1.92
0.52 0.48 0.51 0.59 0.74 0.64 0.54 0.52 0.58 0.58 0.73 0.93 0.92 0.91 0.97 1.05 0.97 1.01 1.05 1.09 0.99 0.94 1.43 2.12 2.12 1.69 1.99 1.45 0.70 0.25 0.26 0.43 0.79 1.56 1.99 2.11 1.74 1.28 0.76 0.86 0.87 0.75 0.70 0.80 0.76 0.77 1.88
0.60 0.58 0.58 0.59 0.64 0.54 0.59 0.60 0.61 0.71 0.97 1.09 1.09 1.36 1.29 0.97 1.10 1.16 1.13 1.98 2.01 1.02 1.61 1.97 1.75 1.73 1.71 1.34 0.56 0.28 0.35 0.58 1.02 1.98 2.71 2.91 2.73 1.59 0.66 0.83 0.78 0.84 0.40 0.44 0.70 0.62 1.10
0.58 0.62 0.50 0.67 0.55 0.61 0.63 0.68 0.64 0.84 1.05 1.15 1.17 1.20 0.97 0.94 0.93 0.82 1.02 1.78 1.96 2.11 2.32 1.89 1.04 0.79 0.94 0.94 0.58 0.55 0.54 0.77 1.65 2.39 2.46 2.53 2.09 1.31 0.37 0.23 0.25 0.21 0.33 0.26 0.54 0.72 0.54
0.62 0.68 0.67 0.65 0.63 0.57 0.66 0.66 0.72 0.88 0.96 0.97 0.94 0.88 0.83 0.88 1.00 1.19 1.33 1.58 1.29 1.75 2.66 1.85 0.78 0.61 0.64 0.58 0.84 0.71 0.85 1.49 1.82 2.21 1.99 2.18 1.34 0.79 0.63 0.34 0.31 0.29 0.31 0.27 0.42 0.71 0.63
0.72 0.73 0.74 0.66 0.55 0.57 0.63 0.71 0.91 1.03 1.09 0.99 0.81 0.77 0.80 0.95 1.03 1.40 1.30 1.01 1.01 1.12 2.05 2.28 1.29 1.07 0.85 0.58 0.89 0.78 1.15 1.54 1.63 1.53 1.24 1.32 0.67 0.40 0.62 0.55 0.47 0.28 0.27 0.21 0.41 0.47 0.43
0.75 0.66 0.61 0.56 0.61 0.71 0.74 0.76 0.85 0.97 1.09 1.03 0.90 0.96 1.04 1.17 1.35 1.02 1.27 0.94 0.83 1.14 1.69 2.01 1.23 1.16 0.65 1.07 1.26 0.57 1.63 1.59 1.70 1.35 1.03 1.18 0.70 0.47 0.46 0.77 0.43 0.34 0.15 0.25 0.52 0.65 0.56
0.95 0.70 0.58 0.54 0.61 0.73 0.87 0.95 1.05 1.07 1.16 1.25 1.29 1.09 0.93 1.28 1.31 1.16 0.86 0.64 0.87 1.50 1.82 1.42 1.07 0.75 0.89 0.88 0.66 0.79 1.30 1.20 1.09 1.08 1.06 0.96 0.61 0.70 0.52 0.79 0.41 0.48 0.19 0.25 0.43 0.76 1.16
0.78 0.53 0.60 0.68 0.75 0.77 0.82 0.91 1.22 1.41 1.37 1.40 1.25 1.18 1.07 1.05 0.98 0.98 0.84 0.61 1.28 1.68 2.25 2.04 1.51 1.31 0.78 0.56 0.53 0.97 1.32 0.99 0.91 0.95 1.00 0.59 0.44 0.88 0.75 0.59 0.55 0.43 0.47 0.47 0.71 1.07 1.65
0.60 0.57 0.75 0.85 0.88 0.88 0.97 1.20 1.33 1.19 1.25 1.25 1.21 1.41 1.31 0.79 0.89 0.85 1.31 1.13 1.53 1.28 1.21 1.46 1.17 0.57 0.40 0.52 0.83 1.15 1.22 0.79 1.12 1.57 1.45 1.24 0.99 0.84 0.76 0.99 1.04 0.75 1.04 1.76 1.80 2.02 1.05
0.62 0.67 0.82 0.93 1.04 1.23 1.51 1.64 1.33 1.15 1.21 1.18 1.42 1.45 1.47 1.01 0.94 0.99 1.80 1.29 1.22 0.87 0.98 0.82 0.41 0.39 0.50 0.39 0.57 0.75 0.98 0.50 0.31 0.48 0.79 0.97 1.41 1.19 0.78 0.87 1.22 1.00 1.02 1.56 1.66 1.07 0.90
0.66 0.91 1.14 1.18 1.36 1.63 1.66 1.37 1.10 1.15 1.24 1.28 1.78 1.97 1.74 1.48 1.20 1.32 1.48 1.22 1.04 0.95 0.94 0.47 0.32 0.37 0.40 0.18 0.28 0.53 0.43 0.24 0.15 0.16 0.64 0.50 0.78 0.58 0.77 0.62 0.83 0.88 0.93 0.87 1.54 0.80 0.86
0.87 1.03 1.21 1.48 1.62 1.73 1.58 1.23 1.35 1.36 1.56 1.66 2.35 2.66 1.63 1.35 1.47 1.46 1.32 1.06 0.64 0.41 0.28 0.18 0.29 0.14 0.10 0.06 0.12 0.12 0.18 0.08 0.16 0.14 0.28 0.48 0.84 0.96 0.85 0.78 0.66 0.62 0.55 0.99 1.68 1.46 0.99
1.00 1.20 1.38 1.66 1.85 1.92 1.67 1.47 1.56 1.77 1.71 2.11 2.38 2.51 1.68 1.75 2.08 2.06 1.56 1.13 0.45 0.18 0.15 0.15 0.10 0.07 0.03 0.08 0.16 0.29 0.37 0.18 0.18 0.24 0.27 0.66 1.23 1.09 1.08 0.81 0.59 0.78 0.88 0.64 0.99 1.04 1.10
1.13 1.30 1.55 1.74 2.02 2.00 2.02 1.85 1.75 2.04 1.97 2.37 2.26 2.06 1.93 2.35 2.58 1.83 1.09 0.78 0.47 0.16 0.17 0.15 0.13 0.07 0.15 0.20 0.21 0.21 0.18 0.19 0.13 0.15 0.38 0.51 1.10 0.95 0.67 0.20 0.22 0.38 0.45 0.43 1.27 1.01 0.78
1.34 1.33 1.35 1.59 1.86 2.15 2.54 2.29 1.60 2.02 2.13 2.21 2.20 1.95 2.78 1.58 1.14 0.76 0.49 0.45 0.30 0.12 0.18 0.26 0.22 0.16 0.19 0.20 0.24 0.14 0.08 0.05 0.02 0.06 0.36 0.68 1.40 1.07 0.78 0.54 0.65 0.97 0.51 0.55 1.00 1.60 1.21
1.48 1.36 1.37 1.57 1.79 2.05 2.42 2.64 1.99 1.88 1.99 2.36 2.31 2.17 3.82 2.50 0.64 0.27 0.54 0.57 0.38 0.16 0.18 0.27 0.29 0.18 0.18 0.12 0.09 0.20 0.04 0.03 0.02 0.05 0.30 1.05 1.21 1.09 0.98 0.83 1.05 0.93 0.41 0.65 1.43 1.70 0.61
1.44 1.28 1.24 1.54 1.78 1.92 2.16 2.79 3.15 2.51 2.31 2.36 1.90 1.12 1.00 1.10 0.59 0.23 0.53 0.55 0.49 0.31 0.22 0.23 0.23 0.09 0.25 0.41 0.18 0.09 0.07 0.14 0.09 0.06 0.30 0.93 1.40 1.32 0.57 0.42 0.78 0.73 0.46 0.56 1.16 0.72 0.81
1.37 1.26 1.20 1.39 1.88 2.15 2.06 2.23 2.90 2.54 2.55 1.90 1.28 0.94 0.36 0.23 0.16 0.26 0.34 0.38 0.42 0.44 0.48 0.36 0.31 0.20 0.31 0.39 0.29 0.45 0.44 0.43 0.36 0.23 0.33 0.73 1.17 0.87 0.40 0.26 0.44 0.59 0.30 0.43 0.63 0.47 0.40
1.18 1.28 1.25 1.27 1.63 2.12 1.96 2.16 2.47 2.16 2.68 2.11 1.12 0.87 0.77 0.61 0.33 0.30 0.21 0.23 0.36 0.53 0.46 0.22 0.29 0.46 0.32 0.15 0.26 0.25 0.21 0.16 0.19 0.22 0.34 0.70 0.87 1.10 0.85 0.42 0.66 0.72 0.38 0.40 0.51 0.39 0.29
1.43 1.49 1.64 1.49 1.58 1.82 1.88 2.06 2.26 2.27 2.49 2.25 1.48 1.58 1.49 0.88 0.38 0.26 0.19 0.27 0.40 0.45 0.63 0.34 0.25 0.45 0.28 0.21 0.19 0.13 0.09 0.06 0.09 0.10 0.16 0.45 0.75 1.24 1.06 0.75 0.93 0.61 0.31 0.23 0.25 0.26 0.20
1.63 1.67 1.81 1.88 2.00 1.72 1.75 1.86 2.01 2.07 1.83 1.72 1.47 1.85 1.84 1.23 0.42 0.26 0.17 0.34 0.43 0.41 0.54 0.47 0.23 0.22 0.20 0.24 0.48 0.43 0.21 0.14 0.04 0.05 0.11 0.23 0.61 0.96 0.74 0.54 0.32 0.19 0.18 0.18 0.24 0.19 0.11
1.51 1.86 2.07 2.14 2.17 1.88 1.67 1.56 1.77 1.68 1.65 1.48 1.28 1.69 2.33 2.01 0.61 0.23 0.34 0.43 0.53 0.51 0.60 0.41 0.24 0.28 0.39 0.64 0.83 0.61 0.25 0.17 0.11 0.06 0.07 0.18 0.39 0.97 0.67 0.76 0.29 0.10 0.02 0.02 0.04 0.14 0.02
1.56 1.69 2.07 2.21 2.19 2.13 2.02 1.79 1.82 1.51 1.38 1.41 1.24 1.34 2.34 2.24 0.52 0.15 0.30 0.54 0.79 0.81 1.07 0.65 0.57 0.61 0.55 0.79 0.81 0.44 0.16 0.09 0.18 0.14 0.11 0.27 0.38 0.64 0.54 0.93 0.22 0.05 0.01 0.01 0.14 0.16 0.01
1.50 1.36 1.76 2.22 2.03 1.93 2.07 1.78 1.63 1.37 1.40 1.74 1.08 1.06 2.12 2.36 0.78 0.16 0.18 0.40 0.88 0.99 1.24 1.16 1.42 0.88 0.94 1.03 0.87 0.47 0.36 0.23 0.15 0.06 0.07 0.24 0.45 0.34 0.47 0.68 0.24 0.02 0.05 0.18 0.25 0.10 0.04
1.94 1.90 2.16 2.31 1.96 1.77 1.61 1.46 1.50 1.36 1.36 2.00 1.36 0.77 1.34 2.35 1.46 0.33 0.22 0.21 0.42 0.57 1.07 1.41 1.28 0.69 1.08 1.21 1.04 0.96 0.71 0.36 0.19 0.25 0.03 0.26 0.30 0.42 0.42 0.22 0.07 0.09 0.20 0.21 0.21 0.29 0.14